EW5004 Weather Reports


Display with metric or nautical units.
time (UTC)temp
F
wind
direction
speed
MPH
gust
MPH
rain 1hr
in
rain 24hr
in
rain mn
in
humidity
%
barometer
mb
20260502183029 44 70 5.0 13.0 0.00 0.00 0.00 54 1017.0
20260502181526 45 57 4.0 9.0 0.00 0.00 0.00 52 1017.0
20260502163016 42 5 5.0 10.0 0.00 0.00 0.00 59 1017.3
20260502161514 41 34 3.0 10.0 0.00 0.00 0.00 59 1017.3
20260502151509 40 26 4.0 10.0 0.00 0.00 0.00 59 1017.2
20260502123051 39 42 2.0 5.0 0.00 0.00 0.00 55 1016.8
20260502121550 38 120 0.0 3.0 0.00 0.00 0.00 53 1016.8
20260502114549 38 75 2.0 6.0 0.00 0.00 0.00 56 1016.9
20260502113053 39 66 2.0 5.0 0.00 0.00 0.00 57 1016.8
20260502111546 38 60 1.0 5.0 0.00 0.00 0.00 57 1016.6
20260502110047 38 69 1.0 4.0 0.00 0.00 0.00 57 1016.4
20260502104543 38 355 1.0 4.0 0.00 0.00 0.00 57 1016.5
20260502103039 38 15 0.0 2.0 0.00 0.00 0.00 58 1016.4
20260502101546 38 16 0.0 3.0 0.00 0.00 0.00 57 1016.3
20260502071530 39 79 1.0 3.0 0.00 0.00 0.00 58 1015.5
20260502070047 40 86 0.0 0.0 0.00 0.00 0.00 58 1015.4
20260502064526 40 90 1.0 4.0 0.00 0.00 0.00 58 1015.6
20260502063029 40 49 0.0 2.0 0.00 0.00 0.00 57 1015.8
20260502061523 40 9 0.0 5.0 0.00 0.00 0.00 57 1015.9
20260502060034 41 30 2.0 5.0 0.00 0.00 0.00 57 1016.0
20260502054532 40 52 3.0 8.0 0.00 0.00 0.00 59 1016.1
20260502053020 40 78 3.0 7.0 0.00 0.00 0.00 58 1016.1
20260502051519 41 57 1.0 4.0 0.00 0.00 0.00 56 1016.0
20260502050021 41 78 2.0 4.0 0.00 0.00 0.00 56 1016.1
20260502044517 40 52 2.0 6.0 0.00 0.00 0.00 54 1016.2
20260502043014 40 80 2.0 6.0 0.00 0.00 0.00 52 1016.2
20260502041524 40 52 0.0 2.0 0.00 0.00 0.00 47 1016.2
20260502040012 38 86 0.0 3.0 0.00 0.00 0.00 24 1015.8
20260502034504 37 86 0.0 3.0 0.00 0.00 0.00 100 1015.8
20260502033059 36 321 0.0 0.0 0.00 0.00 0.00 100 1015.7
20260502031555 36 320 0.0 2.0 0.00 0.00 0.00 100 1015.6
20260502030109 36 320 1.0 2.0 0.00 0.00 0.00 100 1015.6
20260502024557 36 320 0.0 2.0 0.00 0.00 0.00 100 1015.7
20260502023058 36 321 1.0 3.0 0.00 0.00 0.00 100 1015.7
20260502021538 37 5 0.0 2.0 0.00 0.00 0.00 2 1015.5
20260502020033 38 5 0.0 1.0 0.00 0.00 0.00 6 1015.4
20260502014536 39 5 0.0 0.0 0.00 0.00 0.00 11 1015.2
20260502013025 40 5 0.0 1.0 0.00 0.00 0.00 16 1015.1
20260502011520 40 5 0.0 3.0 0.00 0.00 0.00 20 1014.9
20260502010016 41 5 0.0 2.0 0.00 0.00 0.00 25 1014.8
20260502004513 41 5 0.0 3.0 0.00 0.00 0.00 29 1014.6
20260502003008 42 355 2.0 5.0 0.00 0.00 0.00 33 1014.5
20260502001502 42 27 3.0 6.0 0.00 0.00 0.00 36 1014.4
20260502000108 43 355 3.0 5.0 0.00 0.00 0.00 40 1014.2
20260501234554 43 5 2.0 5.0 0.00 0.00 0.00 46 1013.9
20260501233104 44 323 2.0 6.0 0.00 0.00 0.00 49 1013.6
20260501231555 44 332 2.0 4.0 0.00 0.00 0.00 39 1013.6
20260501230110 44 22 2.0 4.0 0.00 0.00 0.00 38 1013.5
20260501224550 44 355 3.0 4.0 0.00 0.00 0.00 34 1013.4
20260501223031 44 329 2.0 4.0 0.00 0.00 0.00 31 1013.5
20260501221527 44 274 1.0 3.0 0.00 0.00 0.00 24 1013.4
20260501220023 43 244 1.0 3.0 0.00 0.00 0.00 22 1013.3
20260501214519 42 190 1.0 6.0 0.00 0.00 0.00 21 1013.2
20260501213016 42 219 3.0 5.0 0.00 0.00 0.00 19 1013.0
20260501211510 42 194 3.0 6.0 0.00 0.00 0.00 13 1012.9
20260501210005 41 157 1.0 3.0 0.00 0.00 0.00 16 1013.1
20260501204501 41 132 1.0 3.0 0.00 0.00 0.00 23 1013.0
20260501203057 41 134 3.0 5.0 0.00 0.00 0.00 18 1013.0
20260501201553 41 141 3.0 9.0 0.00 0.00 0.00 17 1013.0
20260501200048 40 123 4.0 10.0 0.00 0.00 0.00 16 1013.1
20260501194544 40 153 4.0 11.0 0.00 0.00 0.00 11 1013.1
20260501193040 39 79 6.0 11.0 0.00 0.00 0.00 6 1013.2
20260501191535 39 71 6.0 10.0 0.00 0.00 0.00 100 1013.0
20260501190032 39 120 3.0 9.0 0.00 0.00 0.00 100 1013.0
20260501184528 39 152 5.0 10.0 0.00 0.00 0.00 100 1012.9